| time (UTC) | temp F | wind direction | speed MPH | gust MPH | rain 1hr in | rain 24hr in | rain mn in | humidity % | barometer mb |
| 20260902210424 | 104 | 15 | 3.0 | 5.0 | 0.00 | 0.00 | 0.00 | ||
| 20260902195424 | 103 | 75 | 2.0 | 6.0 | 0.00 | 0.00 | 0.00 | ||
| 20260902185424 | 105 | 331 | 0.0 | 6.0 | 0.00 | 0.00 | 0.00 | ||
| 20260902184923 | 105 | 28 | 1.0 | 3.0 | 0.00 | 0.00 | 0.00 | ||
| 20260902183424 | 104 | 4 | 1.0 | 1.0 | 0.00 | 0.00 | 0.00 | ||
| 20260902182424 | 104 | 334 | 4.0 | 2.0 | 0.00 | 0.00 | 0.00 | ||
| 20260902181424 | 103 | 149 | 2.0 | 6.0 | 0.00 | 0.00 | 0.00 | ||
| 20260902175924 | 100 | 58 | 2.0 | 2.0 | 0.00 | 0.00 | 0.00 | ||
| 20260902175424 | 101 | 182 | 1.0 | 4.0 | 0.00 | 0.00 | 0.00 | ||
| 20260902174924 | 101 | 66 | 2.0 | 1.0 | 0.00 | 0.00 | 0.00 | ||
| 20260902173924 | 100 | 146 | 2.0 | 1.0 | 0.00 | 0.00 | 0.00 | ||
| 20260902173424 | 97 | 158 | 2.0 | 3.0 | 0.00 | 0.00 | 0.00 | ||
| 20260902172424 | 98 | 56 | 3.0 | 6.0 | 0.00 | 0.00 | 0.00 | ||
| 20260902170924 | 101 | 99 | 3.0 | 4.0 | 0.00 | 0.00 | 0.00 | ||
| 20260902163425 | 95 | 115 | 3.0 | 3.0 | 0.00 | 0.00 | 0.00 | ||
| 20260902162424 | 95 | 68 | 0.0 | 4.0 | 0.00 | 0.00 | 0.00 | ||
| 20260902133925 | 83 | 237 | 1.0 | 6.0 | 0.00 | 0.00 | 0.00 | ||
| 20260902131425 | 82 | 100 | 2.0 | 3.0 | 0.00 | 0.00 | 0.00 | ||
| 20260902125925 | 81 | 84 | 0.0 | 0.0 | 0.00 | 0.00 | 0.00 | ||
| 20260902123925 | 80 | 128 | 0.0 | 1.0 | 0.00 | 0.00 | 0.00 | ||
| 20260902063926 | 86 | 151 | 0.0 | 3.0 | 0.00 | 0.00 | 0.00 | ||
| 20260902060927 | 85 | 184 | 2.0 | 4.0 | 0.00 | 0.00 | 0.00 | ||
| 20260902054927 | 86 | 155 | 0.0 | 4.0 | 0.00 | 0.00 | 0.00 | ||
| 20260902045426 | 88 | 211 | 0.0 | 8.0 | 0.00 | 0.00 | 0.00 | ||
| 20260902040426 | 90 | 120 | 1.0 | 1.0 | 0.00 | 0.00 | 0.00 | ||
| 20260902015427 | 92 | 59 | 0.0 | 0.0 | 0.00 | 0.00 | 0.00 | ||
| 20260902012427 | 94 | 68 | 2.0 | 0.0 | 0.00 | 0.00 | 0.00 | ||
| 20260902011927 | 94 | 137 | 0.0 | 4.0 | 0.00 | 0.00 | 0.00 | ||
| 20260902011427 | 94 | 101 | 0.0 | 3.0 | 0.00 | 0.00 | 0.00 | ||
| 20260902005927 | 94 | 128 | 0.0 | 0.0 | 0.00 | 0.00 | 0.00 | ||
| 20260902005427 | 94 | 128 | 1.0 | 1.0 | 0.00 | 0.00 | 0.00 | ||
| 20260902004927 | 95 | 103 | 0.0 | 1.0 | 0.00 | 0.00 | 0.00 | ||
| 20260902004427 | 95 | 92 | 1.0 | 3.0 | 0.00 | 0.00 | 0.00 | ||
| 20260902003427 | 96 | 45 | 2.0 | 3.0 | 0.00 | 0.00 | 0.00 | ||
| 20260902002927 | 96 | 4 | 1.0 | 0.0 | 0.00 | 0.00 | 0.00 | ||
| 20260902002427 | 96 | 24 | 0.0 | 0.0 | 0.00 | 0.00 | 0.00 | ||
| 20260902001427 | 97 | 114 | 1.0 | 5.0 | 0.00 | 0.00 | 0.00 | ||
| 20260902000927 | 97 | 62 | 0.0 | 2.0 | 0.00 | 0.00 | 0.00 | ||
| 20260902000429 | 97 | 93 | 2.0 | 3.0 | 0.00 | 0.00 | 0.00 | ||
| 20260901235927 | 99 | 84 | 2.0 | 4.0 | 0.00 | 0.00 | 0.00 | ||
| 20260901235427 | 98 | 28 | 1.0 | 3.0 | 0.00 | 0.00 | 0.00 | ||
| 20260901234427 | 99 | 44 | 3.0 | 3.0 | 0.00 | 0.00 | 0.00 | ||
| 20260901233427 | 100 | 25 | 5.0 | 6.0 | 0.00 | 0.00 | 0.00 | ||
| 20260901231927 | 102 | 66 | 3.0 | 3.0 | 0.00 | 0.00 | 0.00 | ||
| 20260901230927 | 101 | 118 | 3.0 | 3.0 | 0.00 | 0.00 | 0.00 | ||
| 20260901230427 | 101 | 201 | 1.0 | 2.0 | 0.00 | 0.00 | 0.00 | ||
| 20260901225927 | 101 | 156 | 2.0 | 4.0 | 0.00 | 0.00 | 0.00 | ||
| 20260901224927 | 101 | 82 | 2.0 | 7.0 | 0.00 | 0.00 | 0.00 | ||
| 20260901224427 | 100 | 100 | 1.0 | 2.0 | 0.00 | 0.00 | 0.00 | ||
| 20260901223427 | 99 | 239 | 0.0 | 1.0 | 0.00 | 0.00 | 0.00 | ||
| 20260901222928 | 100 | 186 | 1.0 | 4.0 | 0.00 | 0.00 | 0.00 | ||
| 20260901221431 | 99 | 21 | 2.0 | 5.0 | 0.00 | 0.00 | 0.00 |